owner,sensor,date,latitude,longitude,vertical_datum,sea_water_temperature,qcFlag 
WAVCIS,ioos:station:WAVCIS:CSI03:1,2016-03-01T00:00:00Z,29.4412,-92.0613,10.0,-12.59,11144222 
WAVCIS,ioos:station:WAVCIS:CSI03:1,2016-03-01T01:00:00Z,29.4412,-92.0613,10.0,-12.18,11144222 
WAVCIS,ioos:station:WAVCIS:CSI03:1,2016-03-01T02:00:00Z,29.4412,-92.0613,10.0,-12.15,11144222 
WAVCIS,ioos:station:WAVCIS:CSI03:1,2016-03-01T03:00:00Z,29.4412,-92.0613,10.0,-11.95,11144222 
WAVCIS,ioos:station:WAVCIS:CSI03:1,2016-03-01T04:00:00Z,29.4412,-92.0613,10.0,-12.14,11144222 
WAVCIS,ioos:station:WAVCIS:CSI03:1,2016-03-01T05:00:00Z,29.4412,-92.0613,10.0,-12.48,11144222 
WAVCIS,ioos:station:WAVCIS:CSI03:1,2016-03-01T06:00:00Z,29.4412,-92.0613,10.0,-12.56,11144222 
WAVCIS,ioos:station:WAVCIS:CSI03:1,2016-03-01T07:00:00Z,29.4412,-92.0613,10.0,-12.39,11144222 
WAVCIS,ioos:station:WAVCIS:CSI03:1,2016-03-01T08:00:00Z,29.4412,-92.0613,10.0,-11.8,11144222 
WAVCIS,ioos:station:WAVCIS:CSI03:1,2016-03-01T09:00:00Z,29.4412,-92.0613,10.0,-11.94,11144222 
WAVCIS,ioos:station:WAVCIS:CSI03:1,2016-03-01T10:00:00Z,29.4412,-92.0613,10.0,-12.21,11144222 
WAVCIS,ioos:station:WAVCIS:CSI03:1,2016-03-01T11:00:00Z,29.4412,-92.0613,10.0,-12.24,11144222 
WAVCIS,ioos:station:WAVCIS:CSI03:1,2016-03-01T12:00:00Z,29.4412,-92.0613,10.0,-12.13,11144222 
WAVCIS,ioos:station:WAVCIS:CSI03:1,2016-03-01T13:00:00Z,29.4412,-92.0613,10.0,-11.76,11144222 
WAVCIS,ioos:station:WAVCIS:CSI03:1,2016-03-01T14:00:00Z,29.4412,-92.0613,10.0,-11.77,11144222 
WAVCIS,ioos:station:WAVCIS:CSI03:1,2016-03-01T15:00:00Z,29.4412,-92.0613,10.0,-11.7,11144222 
WAVCIS,ioos:station:WAVCIS:CSI03:1,2016-03-01T16:00:00Z,29.4412,-92.0613,10.0,-11.69,11144222 
WAVCIS,ioos:station:WAVCIS:CSI03:1,2016-03-01T17:00:00Z,29.4412,-92.0613,10.0,-12.09,11144222 
WAVCIS,ioos:station:WAVCIS:CSI03:1,2016-03-01T18:00:00Z,29.4412,-92.0613,10.0,-12.15,11144222 
WAVCIS,ioos:station:WAVCIS:CSI03:1,2016-03-01T19:00:00Z,29.4412,-92.0613,10.0,-12.16,11144222 
WAVCIS,ioos:station:WAVCIS:CSI03:1,2016-03-01T20:00:00Z,29.4412,-92.0613,10.0,-12.18,11144222 
WAVCIS,ioos:station:WAVCIS:CSI03:1,2016-03-01T21:00:00Z,29.4412,-92.0613,10.0,-12.21,11144222 
WAVCIS,ioos:station:WAVCIS:CSI03:1,2016-03-01T22:00:00Z,29.4412,-92.0613,10.0,-12.04,11144222 
WAVCIS,ioos:station:WAVCIS:CSI03:1,2016-03-01T23:00:00Z,29.4412,-92.0613,10.0,-12.13,11144222 
WAVCIS,ioos:station:WAVCIS:CSI03:1,2016-03-02T00:00:00Z,29.4412,-92.0613,10.0,-12.45,11144222 
WAVCIS,ioos:station:WAVCIS:CSI03:1,2016-03-02T01:00:00Z,29.4412,-92.0613,10.0,-12.64,11144222 
WAVCIS,ioos:station:WAVCIS:CSI03:1,2016-03-02T02:00:00Z,29.4412,-92.0613,10.0,-12.49,11144222 
WAVCIS,ioos:station:WAVCIS:CSI03:1,2016-03-02T03:00:00Z,29.4412,-92.0613,10.0,-12.73,11144222 
WAVCIS,ioos:station:WAVCIS:CSI03:1,2016-03-02T04:00:00Z,29.4412,-92.0613,10.0,-12.57,11144222 
WAVCIS,ioos:station:WAVCIS:CSI03:1,2016-03-02T05:00:00Z,29.4412,-92.0613,10.0,-12.55,11144222 
WAVCIS,ioos:station:WAVCIS:CSI03:1,2016-03-02T06:00:00Z,29.4412,-92.0613,10.0,-12.86,11144222 
WAVCIS,ioos:station:WAVCIS:CSI03:1,2016-03-02T07:00:00Z,29.4412,-92.0613,10.0,-13.1,11144222 
WAVCIS,ioos:station:WAVCIS:CSI03:1,2016-03-02T08:00:00Z,29.4412,-92.0613,10.0,-12.32,11144222 
WAVCIS,ioos:station:WAVCIS:CSI03:1,2016-03-02T09:00:00Z,29.4412,-92.0613,10.0,-12.28,11144222 
WAVCIS,ioos:station:WAVCIS:CSI03:1,2016-03-02T10:00:00Z,29.4412,-92.0613,10.0,-12.16,11144222 
WAVCIS,ioos:station:WAVCIS:CSI03:1,2016-03-02T11:00:00Z,29.4412,-92.0613,10.0,-12.36,11144222 
WAVCIS,ioos:station:WAVCIS:CSI03:1,2016-03-02T12:00:00Z,29.4412,-92.0613,10.0,-12.64,11144222 
WAVCIS,ioos:station:WAVCIS:CSI03:1,2016-03-02T13:00:00Z,29.4412,-92.0613,10.0,-12.93,11144222 
WAVCIS,ioos:station:WAVCIS:CSI03:1,2016-03-02T14:00:00Z,29.4412,-92.0613,10.0,-12.9,11144222 
WAVCIS,ioos:station:WAVCIS:CSI03:1,2016-03-02T15:00:00Z,29.4412,-92.0613,10.0,-12.82,11144222 
WAVCIS,ioos:station:WAVCIS:CSI03:1,2016-03-02T16:00:00Z,29.4412,-92.0613,10.0,-12.38,11144222 
WAVCIS,ioos:station:WAVCIS:CSI03:1,2016-03-02T17:00:00Z,29.4412,-92.0613,10.0,-11.55,11144222 
WAVCIS,ioos:station:WAVCIS:CSI03:1,2016-03-02T18:00:00Z,29.4412,-92.0613,10.0,-11.23,11144222 
WAVCIS,ioos:station:WAVCIS:CSI03:1,2016-03-02T19:00:00Z,29.4412,-92.0613,10.0,-11.33,11144222 
WAVCIS,ioos:station:WAVCIS:CSI03:1,2016-03-02T20:00:00Z,29.4412,-92.0613,10.0,-11.06,11144222 
WAVCIS,ioos:station:WAVCIS:CSI03:1,2016-03-02T21:00:00Z,29.4412,-92.0613,10.0,-11.1,11144222 
WAVCIS,ioos:station:WAVCIS:CSI03:1,2016-03-02T22:00:00Z,29.4412,-92.0613,10.0,-10.33,11144222 
WAVCIS,ioos:station:WAVCIS:CSI03:1,2016-03-02T23:00:00Z,29.4412,-92.0613,10.0,-9.67,11144222 
WAVCIS,ioos:station:WAVCIS:CSI03:1,2016-03-03T00:00:00Z,29.4412,-92.0613,10.0,-9.91,11144222 
WAVCIS,ioos:station:WAVCIS:CSI03:1,2016-03-03T01:00:00Z,29.4412,-92.0613,10.0,-9.99,11144222 
WAVCIS,ioos:station:WAVCIS:CSI03:1,2016-03-03T02:00:00Z,29.4412,-92.0613,10.0,-9.92,11144222 
WAVCIS,ioos:station:WAVCIS:CSI03:1,2016-03-03T03:00:00Z,29.4412,-92.0613,10.0,-10.18,11144222 
WAVCIS,ioos:station:WAVCIS:CSI03:1,2016-03-03T04:00:00Z,29.4412,-92.0613,10.0,-10.17,11144222 
WAVCIS,ioos:station:WAVCIS:CSI03:1,2016-03-03T05:00:00Z,29.4412,-92.0613,10.0,-10.18,11144222 
WAVCIS,ioos:station:WAVCIS:CSI03:1,2016-03-03T06:00:00Z,29.4412,-92.0613,10.0,-9.88,11144222 
WAVCIS,ioos:station:WAVCIS:CSI03:1,2016-03-03T07:00:00Z,29.4412,-92.0613,10.0,-10.01,11144222 
WAVCIS,ioos:station:WAVCIS:CSI03:1,2016-03-03T08:00:00Z,29.4412,-92.0613,10.0,-9.8,11144222 
WAVCIS,ioos:station:WAVCIS:CSI03:1,2016-03-03T09:00:00Z,29.4412,-92.0613,10.0,-9.8,11144222 
WAVCIS,ioos:station:WAVCIS:CSI03:1,2016-03-03T10:00:00Z,29.4412,-92.0613,10.0,-9.94,11144222 
WAVCIS,ioos:station:WAVCIS:CSI03:1,2016-03-03T11:00:00Z,29.4412,-92.0613,10.0,-10.3,11144222 
WAVCIS,ioos:station:WAVCIS:CSI03:1,2016-03-03T12:00:00Z,29.4412,-92.0613,10.0,-10.45,11144222 
WAVCIS,ioos:station:WAVCIS:CSI03:1,2016-03-03T13:00:00Z,29.4412,-92.0613,10.0,-10.31,11144222 
WAVCIS,ioos:station:WAVCIS:CSI03:1,2016-03-03T14:00:00Z,29.4412,-92.0613,10.0,-10.38,11144222 
WAVCIS,ioos:station:WAVCIS:CSI03:1,2016-03-03T15:00:00Z,29.4412,-92.0613,10.0,-10.68,11144222 
WAVCIS,ioos:station:WAVCIS:CSI03:1,2016-03-03T16:00:00Z,29.4412,-92.0613,10.0,-10.88,11144222 
WAVCIS,ioos:station:WAVCIS:CSI03:1,2016-03-03T19:00:00Z,29.4412,-92.0613,10.0,-11.36,11144222 
WAVCIS,ioos:station:WAVCIS:CSI03:1,2016-03-03T20:00:00Z,29.4412,-92.0613,10.0,-10.97,11144222 
WAVCIS,ioos:station:WAVCIS:CSI03:1,2016-03-03T21:00:00Z,29.4412,-92.0613,10.0,-11.07,11144222 
WAVCIS,ioos:station:WAVCIS:CSI03:1,2016-03-03T22:00:00Z,29.4412,-92.0613,10.0,-11.02,11144222 
WAVCIS,ioos:station:WAVCIS:CSI03:1,2016-03-03T23:00:00Z,29.4412,-92.0613,10.0,-11.08,11144222 
WAVCIS,ioos:station:WAVCIS:CSI03:1,2016-03-04T00:00:00Z,29.4412,-92.0613,10.0,-10.8,11144222 
WAVCIS,ioos:station:WAVCIS:CSI03:1,2016-03-04T01:00:00Z,29.4412,-92.0613,10.0,-10.63,11144222 
WAVCIS,ioos:station:WAVCIS:CSI03:1,2016-03-04T02:00:00Z,29.4412,-92.0613,10.0,-9.98,11144222 
WAVCIS,ioos:station:WAVCIS:CSI03:1,2016-03-04T03:00:00Z,29.4412,-92.0613,10.0,-9.74,11144222 
WAVCIS,ioos:station:WAVCIS:CSI03:1,2016-03-04T04:00:00Z,29.4412,-92.0613,10.0,-9.61,11144222 
WAVCIS,ioos:station:WAVCIS:CSI03:1,2016-03-04T05:00:00Z,29.4412,-92.0613,10.0,-9.64,11144222 
WAVCIS,ioos:station:WAVCIS:CSI03:1,2016-03-04T06:00:00Z,29.4412,-92.0613,10.0,-9.49,11144222 
WAVCIS,ioos:station:WAVCIS:CSI03:1,2016-03-04T07:00:00Z,29.4412,-92.0613,10.0,-9.73,11144222 
WAVCIS,ioos:station:WAVCIS:CSI03:1,2016-03-04T08:00:00Z,29.4412,-92.0613,10.0,-9.72,11144222 
WAVCIS,ioos:station:WAVCIS:CSI03:1,2016-03-04T09:00:00Z,29.4412,-92.0613,10.0,-10.4,11144222 
WAVCIS,ioos:station:WAVCIS:CSI03:1,2016-03-04T10:00:00Z,29.4412,-92.0613,10.0,-10.78,11144222 
WAVCIS,ioos:station:WAVCIS:CSI03:1,2016-03-04T11:00:00Z,29.4412,-92.0613,10.0,-10.54,11144222 
WAVCIS,ioos:station:WAVCIS:CSI03:1,2016-03-04T12:00:00Z,29.4412,-92.0613,10.0,-10.31,11144222 
WAVCIS,ioos:station:WAVCIS:CSI03:1,2016-03-04T13:00:00Z,29.4412,-92.0613,10.0,-10.41,11144222 
WAVCIS,ioos:station:WAVCIS:CSI03:1,2016-03-04T14:00:00Z,29.4412,-92.0613,10.0,-10.69,11144222 
WAVCIS,ioos:station:WAVCIS:CSI03:1,2016-03-04T15:00:00Z,29.4412,-92.0613,10.0,-10.85,11144222 
WAVCIS,ioos:station:WAVCIS:CSI03:1,2016-03-04T16:00:00Z,29.4412,-92.0613,10.0,-11.02,11144222 
WAVCIS,ioos:station:WAVCIS:CSI03:1,2016-03-04T17:00:00Z,29.4412,-92.0613,10.0,-11.07,11144222 
WAVCIS,ioos:station:WAVCIS:CSI03:1,2016-03-04T18:00:00Z,29.4412,-92.0613,10.0,-10.83,11144222 
WAVCIS,ioos:station:WAVCIS:CSI03:1,2016-03-04T19:00:00Z,29.4412,-92.0613,10.0,-11.1,11144222 
WAVCIS,ioos:station:WAVCIS:CSI03:1,2016-03-05T01:00:00Z,29.4412,-92.0613,10.0,-11.48,11144222 
WAVCIS,ioos:station:WAVCIS:CSI03:1,2016-03-05T02:00:00Z,29.4412,-92.0613,10.0,-11.7,11144222 
WAVCIS,ioos:station:WAVCIS:CSI03:1,2016-03-05T03:00:00Z,29.4412,-92.0613,10.0,-11.29,11144222 
WAVCIS,ioos:station:WAVCIS:CSI03:1,2016-03-05T04:00:00Z,29.4412,-92.0613,10.0,-11.35,11144222 
WAVCIS,ioos:station:WAVCIS:CSI03:1,2016-03-05T05:00:00Z,29.4412,-92.0613,10.0,-11.4,11144222 
WAVCIS,ioos:station:WAVCIS:CSI03:1,2016-03-05T06:00:00Z,29.4412,-92.0613,10.0,-11.8,11144222 
WAVCIS,ioos:station:WAVCIS:CSI03:1,2016-03-05T07:00:00Z,29.4412,-92.0613,10.0,-11.65,11144222 
WAVCIS,ioos:station:WAVCIS:CSI03:1,2016-03-05T08:00:00Z,29.4412,-92.0613,10.0,-11.51,11144222 
WAVCIS,ioos:station:WAVCIS:CSI03:1,2016-03-05T09:00:00Z,29.4412,-92.0613,10.0,-11.17,11144222 
WAVCIS,ioos:station:WAVCIS:CSI03:1,2016-03-05T10:00:00Z,29.4412,-92.0613,10.0,-10.95,11144222 
WAVCIS,ioos:station:WAVCIS:CSI03:1,2016-03-05T11:00:00Z,29.4412,-92.0613,10.0,-10.89,11144222 
WAVCIS,ioos:station:WAVCIS:CSI03:1,2016-03-05T12:00:00Z,29.4412,-92.0613,10.0,-11.08,11144222 
WAVCIS,ioos:station:WAVCIS:CSI03:1,2016-03-05T13:00:00Z,29.4412,-92.0613,10.0,-11.28,11144222 
WAVCIS,ioos:station:WAVCIS:CSI03:1,2016-03-05T14:00:00Z,29.4412,-92.0613,10.0,-11.22,11144222 
WAVCIS,ioos:station:WAVCIS:CSI03:1,2016-03-05T15:00:00Z,29.4412,-92.0613,10.0,-10.96,11144222 
WAVCIS,ioos:station:WAVCIS:CSI03:1,2016-03-05T16:00:00Z,29.4412,-92.0613,10.0,-10.72,11144222 
WAVCIS,ioos:station:WAVCIS:CSI03:1,2016-03-05T17:00:00Z,29.4412,-92.0613,10.0,-10.96,11144222 
WAVCIS,ioos:station:WAVCIS:CSI03:1,2016-03-05T18:00:00Z,29.4412,-92.0613,10.0,-11.38,11144222 
WAVCIS,ioos:station:WAVCIS:CSI03:1,2016-03-05T19:00:00Z,29.4412,-92.0613,10.0,-11.54,11144222 
WAVCIS,ioos:station:WAVCIS:CSI03:1,2016-03-05T20:00:00Z,29.4412,-92.0613,10.0,-11.38,11144222 
WAVCIS,ioos:station:WAVCIS:CSI03:1,2016-03-05T21:00:00Z,29.4412,-92.0613,10.0,-10.98,11144222 
WAVCIS,ioos:station:WAVCIS:CSI03:1,2016-03-05T22:00:00Z,29.4412,-92.0613,10.0,-10.69,11144222 
WAVCIS,ioos:station:WAVCIS:CSI03:1,2016-03-05T23:00:00Z,29.4412,-92.0613,10.0,-10.73,11144222 
WAVCIS,ioos:station:WAVCIS:CSI03:1,2016-03-06T00:00:00Z,29.4412,-92.0613,10.0,-10.84,11144222 
WAVCIS,ioos:station:WAVCIS:CSI03:1,2016-03-06T01:00:00Z,29.4412,-92.0613,10.0,-10.68,11144222 
WAVCIS,ioos:station:WAVCIS:CSI03:1,2016-03-06T02:00:00Z,29.4412,-92.0613,10.0,-10.61,11144222 
WAVCIS,ioos:station:WAVCIS:CSI03:1,2016-03-06T03:00:00Z,29.4412,-92.0613,10.0,-10.7,11144222 
WAVCIS,ioos:station:WAVCIS:CSI03:1,2016-03-06T04:00:00Z,29.4412,-92.0613,10.0,-10.71,11144222 
WAVCIS,ioos:station:WAVCIS:CSI03:1,2016-03-06T05:00:00Z,29.4412,-92.0613,10.0,-10.63,11144222 
WAVCIS,ioos:station:WAVCIS:CSI03:1,2016-03-06T06:00:00Z,29.4412,-92.0613,10.0,-10.71,11144222 
WAVCIS,ioos:station:WAVCIS:CSI03:1,2016-03-06T07:00:00Z,29.4412,-92.0613,10.0,-10.62,11144222 
WAVCIS,ioos:station:WAVCIS:CSI03:1,2016-03-06T08:00:00Z,29.4412,-92.0613,10.0,-10.73,11144222 
WAVCIS,ioos:station:WAVCIS:CSI03:1,2016-03-06T09:00:00Z,29.4412,-92.0613,10.0,-10.78,11144222 
WAVCIS,ioos:station:WAVCIS:CSI03:1,2016-03-06T10:00:00Z,29.4412,-92.0613,10.0,-10.54,11144222 
WAVCIS,ioos:station:WAVCIS:CSI03:1,2016-03-06T11:00:00Z,29.4412,-92.0613,10.0,-10.26,11144222 
WAVCIS,ioos:station:WAVCIS:CSI03:1,2016-03-06T12:00:00Z,29.4412,-92.0613,10.0,-10.31,11144222 
WAVCIS,ioos:station:WAVCIS:CSI03:1,2016-03-06T13:00:00Z,29.4412,-92.0613,10.0,-10.48,11144222 
WAVCIS,ioos:station:WAVCIS:CSI03:1,2016-03-06T14:00:00Z,29.4412,-92.0613,10.0,-10.8,11144222 
WAVCIS,ioos:station:WAVCIS:CSI03:1,2016-03-06T15:00:00Z,29.4412,-92.0613,10.0,-10.87,11144222 
WAVCIS,ioos:station:WAVCIS:CSI03:1,2016-03-06T16:00:00Z,29.4412,-92.0613,10.0,-10.59,11144222 
WAVCIS,ioos:station:WAVCIS:CSI03:1,2016-03-06T17:00:00Z,29.4412,-92.0613,10.0,-10.52,11144222 
WAVCIS,ioos:station:WAVCIS:CSI03:1,2016-03-06T18:00:00Z,29.4412,-92.0613,10.0,-10.17,11144222 
WAVCIS,ioos:station:WAVCIS:CSI03:1,2016-03-06T19:00:00Z,29.4412,-92.0613,10.0,-10.22,11144222 
WAVCIS,ioos:station:WAVCIS:CSI03:1,2016-03-06T20:00:00Z,29.4412,-92.0613,10.0,-10.25,11144222 
WAVCIS,ioos:station:WAVCIS:CSI03:1,2016-03-06T21:00:00Z,29.4412,-92.0613,10.0,-10.1,11144222 
WAVCIS,ioos:station:WAVCIS:CSI03:1,2016-03-06T22:00:00Z,29.4412,-92.0613,10.0,-10.24,11144222 
WAVCIS,ioos:station:WAVCIS:CSI03:1,2016-03-06T23:00:00Z,29.4412,-92.0613,10.0,-10.54,11144222 
WAVCIS,ioos:station:WAVCIS:CSI03:1,2016-03-07T00:00:00Z,29.4412,-92.0613,10.0,-9.93,11144222 
WAVCIS,ioos:station:WAVCIS:CSI03:1,2016-03-07T01:00:00Z,29.4412,-92.0613,10.0,-10.15,11144222 
WAVCIS,ioos:station:WAVCIS:CSI03:1,2016-03-07T02:00:00Z,29.4412,-92.0613,10.0,-10.22,11144222 
WAVCIS,ioos:station:WAVCIS:CSI03:1,2016-03-07T03:00:00Z,29.4412,-92.0613,10.0,-9.66,11144222 
WAVCIS,ioos:station:WAVCIS:CSI03:1,2016-03-07T04:00:00Z,29.4412,-92.0613,10.0,-9.69,11144222 
WAVCIS,ioos:station:WAVCIS:CSI03:1,2016-03-07T05:00:00Z,29.4412,-92.0613,10.0,-10.04,11144222 
WAVCIS,ioos:station:WAVCIS:CSI03:1,2016-03-07T06:00:00Z,29.4412,-92.0613,10.0,-10.14,11144222 
WAVCIS,ioos:station:WAVCIS:CSI03:1,2016-03-07T07:00:00Z,29.4412,-92.0613,10.0,-10.31,11144222 
WAVCIS,ioos:station:WAVCIS:CSI03:1,2016-03-07T08:00:00Z,29.4412,-92.0613,10.0,-9.5,11144222 
WAVCIS,ioos:station:WAVCIS:CSI03:1,2016-03-07T09:00:00Z,29.4412,-92.0613,10.0,-9.09,11144222 
WAVCIS,ioos:station:WAVCIS:CSI03:1,2016-03-07T10:00:00Z,29.4412,-92.0613,10.0,-8.8,11144222 
WAVCIS,ioos:station:WAVCIS:CSI03:1,2016-03-07T11:00:00Z,29.4412,-92.0613,10.0,-8.56,11144222 
WAVCIS,ioos:station:WAVCIS:CSI03:1,2016-03-07T12:00:00Z,29.4412,-92.0613,10.0,-8.04,11144222 
WAVCIS,ioos:station:WAVCIS:CSI03:1,2016-03-07T13:00:00Z,29.4412,-92.0613,10.0,-7.849,11144222 
WAVCIS,ioos:station:WAVCIS:CSI03:1,2016-03-07T14:00:00Z,29.4412,-92.0613,10.0,-7.973,11144222 
WAVCIS,ioos:station:WAVCIS:CSI03:1,2016-03-07T15:00:00Z,29.4412,-92.0613,10.0,-8.69,11144222 
WAVCIS,ioos:station:WAVCIS:CSI03:1,2016-03-07T16:00:00Z,29.4412,-92.0613,10.0,-9.05,11144222 
WAVCIS,ioos:station:WAVCIS:CSI03:1,2016-03-07T17:00:00Z,29.4412,-92.0613,10.0,-8.98,11144222 
WAVCIS,ioos:station:WAVCIS:CSI03:1,2016-03-07T18:00:00Z,29.4412,-92.0613,10.0,-9.33,11144222 
WAVCIS,ioos:station:WAVCIS:CSI03:1,2016-03-07T19:00:00Z,29.4412,-92.0613,10.0,-9.35,11144222 
WAVCIS,ioos:station:WAVCIS:CSI03:1,2016-03-07T20:00:00Z,29.4412,-92.0613,10.0,-10.25,11144222 
WAVCIS,ioos:station:WAVCIS:CSI03:1,2016-03-07T21:00:00Z,29.4412,-92.0613,10.0,-10.59,11144222 
WAVCIS,ioos:station:WAVCIS:CSI03:1,2016-03-07T22:00:00Z,29.4412,-92.0613,10.0,-10.14,11144222 
WAVCIS,ioos:station:WAVCIS:CSI03:1,2016-03-07T23:00:00Z,29.4412,-92.0613,10.0,-10.2,11144222 
WAVCIS,ioos:station:WAVCIS:CSI03:1,2016-03-08T00:00:00Z,29.4412,-92.0613,10.0,-9.32,11144222 
WAVCIS,ioos:station:WAVCIS:CSI03:1,2016-03-08T01:00:00Z,29.4412,-92.0613,10.0,-9.01,11144222 
WAVCIS,ioos:station:WAVCIS:CSI03:1,2016-03-08T02:00:00Z,29.4412,-92.0613,10.0,-9.22,11144222 
WAVCIS,ioos:station:WAVCIS:CSI03:1,2016-03-08T09:00:00Z,29.4412,-92.0613,10.0,-9.55,11144222 
WAVCIS,ioos:station:WAVCIS:CSI03:1,2016-03-08T10:00:00Z,29.4412,-92.0613,10.0,-9.28,11144222 
WAVCIS,ioos:station:WAVCIS:CSI03:1,2016-03-08T11:00:00Z,29.4412,-92.0613,10.0,-9.48,11144222 
WAVCIS,ioos:station:WAVCIS:CSI03:1,2016-03-08T12:00:00Z,29.4412,-92.0613,10.0,-9.64,11144222 
WAVCIS,ioos:station:WAVCIS:CSI03:1,2016-03-08T13:00:00Z,29.4412,-92.0613,10.0,-9.81,11144222 
WAVCIS,ioos:station:WAVCIS:CSI03:1,2016-03-08T14:00:00Z,29.4412,-92.0613,10.0,-9.11,11144222 
WAVCIS,ioos:station:WAVCIS:CSI03:1,2016-03-08T15:00:00Z,29.4412,-92.0613,10.0,-9.5,11144222 
WAVCIS,ioos:station:WAVCIS:CSI03:1,2016-03-08T16:00:00Z,29.4412,-92.0613,10.0,-9.44,11144222 
WAVCIS,ioos:station:WAVCIS:CSI03:1,2016-03-08T17:00:00Z,29.4412,-92.0613,10.0,-9.14,11144222 
WAVCIS,ioos:station:WAVCIS:CSI03:1,2016-03-08T18:00:00Z,29.4412,-92.0613,10.0,-8.97,11144222 
WAVCIS,ioos:station:WAVCIS:CSI03:1,2016-03-08T19:00:00Z,29.4412,-92.0613,10.0,-9.79,11144222 
WAVCIS,ioos:station:WAVCIS:CSI03:1,2016-03-08T20:00:00Z,29.4412,-92.0613,10.0,-9.72,11144222 
WAVCIS,ioos:station:WAVCIS:CSI03:1,2016-03-08T21:00:00Z,29.4412,-92.0613,10.0,-9.88,11144222 
WAVCIS,ioos:station:WAVCIS:CSI03:1,2016-03-08T22:00:00Z,29.4412,-92.0613,10.0,-10.12,11144222 
WAVCIS,ioos:station:WAVCIS:CSI03:1,2016-03-08T23:00:00Z,29.4412,-92.0613,10.0,-10.09,11144222 
WAVCIS,ioos:station:WAVCIS:CSI03:1,2016-03-09T00:00:00Z,29.4412,-92.0613,10.0,-10.04,11144222 
WAVCIS,ioos:station:WAVCIS:CSI03:1,2016-03-09T01:00:00Z,29.4412,-92.0613,10.0,-9.35,11144222 
WAVCIS,ioos:station:WAVCIS:CSI03:1,2016-03-09T02:00:00Z,29.4412,-92.0613,10.0,-9.35,11144222 
WAVCIS,ioos:station:WAVCIS:CSI03:1,2016-03-09T03:00:00Z,29.4412,-92.0613,10.0,-9.32,11144222 
WAVCIS,ioos:station:WAVCIS:CSI03:1,2016-03-09T04:00:00Z,29.4412,-92.0613,10.0,-9.33,11144222 
WAVCIS,ioos:station:WAVCIS:CSI03:1,2016-03-09T05:00:00Z,29.4412,-92.0613,10.0,-9.11,11144222 
WAVCIS,ioos:station:WAVCIS:CSI03:1,2016-03-09T06:00:00Z,29.4412,-92.0613,10.0,-9.36,11144222 
WAVCIS,ioos:station:WAVCIS:CSI03:1,2016-03-09T07:00:00Z,29.4412,-92.0613,10.0,-9.84,11144222 
WAVCIS,ioos:station:WAVCIS:CSI03:1,2016-03-09T08:00:00Z,29.4412,-92.0613,10.0,-9.51,11144222 
WAVCIS,ioos:station:WAVCIS:CSI03:1,2016-03-09T09:00:00Z,29.4412,-92.0613,10.0,-10.08,11144222 
WAVCIS,ioos:station:WAVCIS:CSI03:1,2016-03-09T10:00:00Z,29.4412,-92.0613,10.0,-10.75,11144222 
WAVCIS,ioos:station:WAVCIS:CSI03:1,2016-03-09T11:00:00Z,29.4412,-92.0613,10.0,-9.11,11144222 
WAVCIS,ioos:station:WAVCIS:CSI03:1,2016-03-09T12:00:00Z,29.4412,-92.0613,10.0,-9.27,11144222 
WAVCIS,ioos:station:WAVCIS:CSI03:1,2016-03-09T13:00:00Z,29.4412,-92.0613,10.0,-10.07,11144222 
WAVCIS,ioos:station:WAVCIS:CSI03:1,2016-03-09T14:00:00Z,29.4412,-92.0613,10.0,-8.65,11144222 
WAVCIS,ioos:station:WAVCIS:CSI03:1,2016-03-09T15:00:00Z,29.4412,-92.0613,10.0,-8.4,11144222 
WAVCIS,ioos:station:WAVCIS:CSI03:1,2016-03-09T16:00:00Z,29.4412,-92.0613,10.0,-8.06,11144222 
WAVCIS,ioos:station:WAVCIS:CSI03:1,2016-03-09T17:00:00Z,29.4412,-92.0613,10.0,-8.8,11144222 
WAVCIS,ioos:station:WAVCIS:CSI03:1,2016-03-09T18:00:00Z,29.4412,-92.0613,10.0,-9.15,11144222 
WAVCIS,ioos:station:WAVCIS:CSI03:1,2016-03-09T19:00:00Z,29.4412,-92.0613,10.0,-8.92,11144222 
WAVCIS,ioos:station:WAVCIS:CSI03:1,2016-03-09T20:00:00Z,29.4412,-92.0613,10.0,-9.22,11144222 
WAVCIS,ioos:station:WAVCIS:CSI03:1,2016-03-09T21:00:00Z,29.4412,-92.0613,10.0,-9.25,11144222 
WAVCIS,ioos:station:WAVCIS:CSI03:1,2016-03-09T22:00:00Z,29.4412,-92.0613,10.0,-9.19,11144222 
WAVCIS,ioos:station:WAVCIS:CSI03:1,2016-03-09T23:00:00Z,29.4412,-92.0613,10.0,-9.5,11144222 
WAVCIS,ioos:station:WAVCIS:CSI03:1,2016-03-10T00:00:00Z,29.4412,-92.0613,10.0,-9.42,11144222 
WAVCIS,ioos:station:WAVCIS:CSI03:1,2016-03-10T01:00:00Z,29.4412,-92.0613,10.0,-8.95,11144222 
WAVCIS,ioos:station:WAVCIS:CSI03:1,2016-03-10T02:00:00Z,29.4412,-92.0613,10.0,-8.48,11144222 
WAVCIS,ioos:station:WAVCIS:CSI03:1,2016-03-10T03:00:00Z,29.4412,-92.0613,10.0,-8.61,11144222 
WAVCIS,ioos:station:WAVCIS:CSI03:1,2016-03-10T04:00:00Z,29.4412,-92.0613,10.0,-8.97,11144222 
WAVCIS,ioos:station:WAVCIS:CSI03:1,2016-03-10T05:00:00Z,29.4412,-92.0613,10.0,-8.99,11144222 
WAVCIS,ioos:station:WAVCIS:CSI03:1,2016-03-10T06:00:00Z,29.4412,-92.0613,10.0,-8.82,11144222 
WAVCIS,ioos:station:WAVCIS:CSI03:1,2016-03-10T07:00:00Z,29.4412,-92.0613,10.0,-9.15,11144222 
WAVCIS,ioos:station:WAVCIS:CSI03:1,2016-03-10T08:00:00Z,29.4412,-92.0613,10.0,-9.53,11144222 
WAVCIS,ioos:station:WAVCIS:CSI03:1,2016-03-10T09:00:00Z,29.4412,-92.0613,10.0,-9.7,11144222 
WAVCIS,ioos:station:WAVCIS:CSI03:1,2016-03-10T10:00:00Z,29.4412,-92.0613,10.0,-10.06,11144222 
WAVCIS,ioos:station:WAVCIS:CSI03:1,2016-03-10T11:00:00Z,29.4412,-92.0613,10.0,-9.91,11144222 
WAVCIS,ioos:station:WAVCIS:CSI03:1,2016-03-10T12:00:00Z,29.4412,-92.0613,10.0,-9.5,11144222 
WAVCIS,ioos:station:WAVCIS:CSI03:1,2016-03-10T13:00:00Z,29.4412,-92.0613,10.0,-9.15,11144222 
WAVCIS,ioos:station:WAVCIS:CSI03:1,2016-03-10T14:00:00Z,29.4412,-92.0613,10.0,-9.21,11144222 
WAVCIS,ioos:station:WAVCIS:CSI03:1,2016-03-10T15:00:00Z,29.4412,-92.0613,10.0,-8.81,11144222 
WAVCIS,ioos:station:WAVCIS:CSI03:1,2016-03-10T17:00:00Z,29.4412,-92.0613,10.0,-10.02,11144222 
WAVCIS,ioos:station:WAVCIS:CSI03:1,2016-03-10T18:00:00Z,29.4412,-92.0613,10.0,-9.85,11144222 
WAVCIS,ioos:station:WAVCIS:CSI03:1,2016-03-10T19:00:00Z,29.4412,-92.0613,10.0,-10.65,11144222 
WAVCIS,ioos:station:WAVCIS:CSI03:1,2016-03-10T20:00:00Z,29.4412,-92.0613,10.0,-10.5,11144222 
WAVCIS,ioos:station:WAVCIS:CSI03:1,2016-03-10T21:00:00Z,29.4412,-92.0613,10.0,-11.75,11144222 
WAVCIS,ioos:station:WAVCIS:CSI03:1,2016-03-10T22:00:00Z,29.4412,-92.0613,10.0,-10.58,11144222 
WAVCIS,ioos:station:WAVCIS:CSI03:1,2016-03-10T23:00:00Z,29.4412,-92.0613,10.0,-10.91,11144222 
WAVCIS,ioos:station:WAVCIS:CSI03:1,2016-03-11T00:00:00Z,29.4412,-92.0613,10.0,-11.18,11144222 
WAVCIS,ioos:station:WAVCIS:CSI03:1,2016-03-11T01:00:00Z,29.4412,-92.0613,10.0,-11.82,11144222 
WAVCIS,ioos:station:WAVCIS:CSI03:1,2016-03-11T02:00:00Z,29.4412,-92.0613,10.0,-11.94,11144222 
WAVCIS,ioos:station:WAVCIS:CSI03:1,2016-03-11T03:00:00Z,29.4412,-92.0613,10.0,-12.23,11144222 
WAVCIS,ioos:station:WAVCIS:CSI03:1,2016-03-11T04:00:00Z,29.4412,-92.0613,10.0,-9.78,11144222 
WAVCIS,ioos:station:WAVCIS:CSI03:1,2016-03-11T05:00:00Z,29.4412,-92.0613,10.0,-9.72,11144222 
WAVCIS,ioos:station:WAVCIS:CSI03:1,2016-03-11T06:00:00Z,29.4412,-92.0613,10.0,-9.94,11144222 
WAVCIS,ioos:station:WAVCIS:CSI03:1,2016-03-11T07:00:00Z,29.4412,-92.0613,10.0,-9.3,11144222 
WAVCIS,ioos:station:WAVCIS:CSI03:1,2016-03-11T08:00:00Z,29.4412,-92.0613,10.0,-8.82,11144222 
WAVCIS,ioos:station:WAVCIS:CSI03:1,2016-03-11T09:00:00Z,29.4412,-92.0613,10.0,-9.13,11144222 
WAVCIS,ioos:station:WAVCIS:CSI03:1,2016-03-11T10:00:00Z,29.4412,-92.0613,10.0,-8.94,11144222 
WAVCIS,ioos:station:WAVCIS:CSI03:1,2016-03-11T11:00:00Z,29.4412,-92.0613,10.0,-8.94,11144222 
WAVCIS,ioos:station:WAVCIS:CSI03:1,2016-03-11T12:00:00Z,29.4412,-92.0613,10.0,-9.16,11144222 
WAVCIS,ioos:station:WAVCIS:CSI03:1,2016-03-11T13:00:00Z,29.4412,-92.0613,10.0,-8.52,11144222 
WAVCIS,ioos:station:WAVCIS:CSI03:1,2016-03-11T14:00:00Z,29.4412,-92.0613,10.0,-9.23,11144222 
WAVCIS,ioos:station:WAVCIS:CSI03:1,2016-03-11T15:00:00Z,29.4412,-92.0613,10.0,-9.92,11144222 
WAVCIS,ioos:station:WAVCIS:CSI03:1,2016-03-11T16:00:00Z,29.4412,-92.0613,10.0,-10.11,11144222 
WAVCIS,ioos:station:WAVCIS:CSI03:1,2016-03-11T17:00:00Z,29.4412,-92.0613,10.0,-9.33,11144222 
WAVCIS,ioos:station:WAVCIS:CSI03:1,2016-03-11T18:00:00Z,29.4412,-92.0613,10.0,-9.25,11144222 
WAVCIS,ioos:station:WAVCIS:CSI03:1,2016-03-11T19:00:00Z,29.4412,-92.0613,10.0,-9.61,11144222 
WAVCIS,ioos:station:WAVCIS:CSI03:1,2016-03-11T20:00:00Z,29.4412,-92.0613,10.0,-9.28,11144222 
WAVCIS,ioos:station:WAVCIS:CSI03:1,2016-03-11T21:00:00Z,29.4412,-92.0613,10.0,-9.88,11144222 
WAVCIS,ioos:station:WAVCIS:CSI03:1,2016-03-11T22:00:00Z,29.4412,-92.0613,10.0,-10.11,11144222 
WAVCIS,ioos:station:WAVCIS:CSI03:1,2016-03-11T23:00:00Z,29.4412,-92.0613,10.0,-9.58,11144222 
WAVCIS,ioos:station:WAVCIS:CSI03:1,2016-03-12T00:00:00Z,29.4412,-92.0613,10.0,-9.32,11144222 
WAVCIS,ioos:station:WAVCIS:CSI03:1,2016-03-12T01:00:00Z,29.4412,-92.0613,10.0,-9.69,11144222 
WAVCIS,ioos:station:WAVCIS:CSI03:1,2016-03-12T02:00:00Z,29.4412,-92.0613,10.0,-9.68,11144222 